Location: Vanderbilt Beach
(26.2700°N, 81.7900°W)
Time: 22:07:09
(UTC-04:00)

Envisat - Pass Details

Date: 22 June 2021
Orbit: 764 x 766 km, 98.2° (Epoch: 02 August)

Event Time Altitude Azimuth Distance (km) Brightness Sun altitude
Rises 05:37:57 0° 35° (NE) 3,229 7.7 -12.0°
Reaches altitude 10° 05:41:05 10° 56° (NE) 2,299 7.1 -11.4°
Maximum altitude 05:44:18 17° 96° (E) 1,864 5.8 -10.8°
Drops below altitude 10° 05:47:29 10° 135° (SE) 2,291 5.6 -10.2°
Sets 05:50:35 0° 155° (SSE) 3,213 6.1 -9.6°
